Regional Weather Roundup
Issued by NWS

Home | Current Version | Previous Version | Graphics & Text | Print | Product List | Glossary On
Versions: 1 2 3 4 5 6 7 8 9 10 11 12 13 14 15 16 17 18 19 20 21 22 23 24 25 26 27 28 29 30 31 32 33 34 35 36 37 38 39 40 41 42 43 44 45 46 47 48 49 50
000
ASUS44 KMEG 101910
RWRTN
TENNESSEE HOURLY STATE WEATHER ROUNDUP
NATIONAL WEATHER SERVICE MEMPHIS TN
100 PM CST SUN DEC 10 2017

TNZ002-004-019-021-049-052-054-088>092-102000-
WEST TENNESSEE

CITY           SKY/WX    TMP DP  RH WIND       PRES   REMARKS
MEMPHIS INTL   MOSUNNY   51  25  36 S17G24    30.21F
NWS MEMPHIS      N/A     49 N/A N/A MISG        N/A
JACKSON        SUNNY     51  23  33 SW14G23   30.19F
DYERSBURG      SUNNY     51  24  34 SW13G22   30.16F
SOMERVILLE     SUNNY     52  23  32 SW16G24   30.19F
COVINGTON      SUNNY     50  23  34 SW21      30.18F
UNION CITY     SUNNY     48  23  37 SW16G23   30.13F
BOLIVAR        SUNNY     50  21  32 S10G17    30.20F
PARIS          SUNNY     46  23  39 SW14G25   30.14F
HUNTINGDON     SUNNY     48  23  37 SW12G20   30.15F
LEXINGTON      SUNNY     48  21  34 SW15G24   30.18F
SAVANNAH       SUNNY     48  21  34 SW13G18   30.21F
$$

TNZ008-025-027-028-033-062-065-066-102000-
NORTH MIDDLE TENNESSEE

CITY           SKY/WX    TMP DP  RH WIND       PRES   REMARKS
NASHVILLE      SUNNY     46  19  34 S10       30.17F
PORTLAND       SUNNY     43  19  39 SW12      30.13F
CLARKSVILLE    SUNNY     45  19  35 S16       30.14F
SMYRNA         SUNNY     46  20  35 SW9G17    30.19F
COOKEVILLE     SUNNY     41  23  48 SW13      30.17F
GALLATIN       SUNNY     45  19  36 SW10G18   30.19F
CROSSVILLE     SUNNY     37  15  40 W9G18     30.14F WCI  30
$$

TNZ061-075-076-078-094-096-097-102000-
SOUTH MIDDLE TENNESSEE

CITY           SKY/WX    TMP DP  RH WIND       PRES   REMARKS
FAYETTEVILLE   SUNNY     45  23  42 SW9G15    30.21F
TULLAHOMA      SUNNY     43  21  42 SW12G18   30.19F
WINCHESTER     SUNNY     41  21  45 W10       30.22S
MCMINNVILLE    SUNNY     41  21  45 SW12      30.18F
COLUMBIA       SUNNY     46  19  34 SW8G17    30.17F
SHELBYVILLE    SUNNY     45  21  39 SW9G17    30.19F
$$

TNZ017-018-042-046-047-102000-
NORTHEAST TENNESSEE

CITY           SKY/WX    TMP DP  RH WIND       PRES   REMARKS
TRI CITIES     MOSUNNY   36  20  52 SW9       30.13F WCI  29
ELIZABETHTON   SUNNY     34  19  55 W8G14     30.13F WCI  27
$$

TNZ012-013-036-069-073-074-102000-
CENTRAL EAST TENNESSEE

CITY           SKY/WX    TMP DP  RH WIND       PRES   REMARKS
KNOXVILLE      SUNNY     40  23  50 SW14      30.18F WCI  32
OAK RIDGE      SUNNY     41  20  43 VRB5      30.19F
DOWNTOWN KNOXV SUNNY     41  19  42 SW10      30.19F
GATLINBURG     SUNNY     43  16  33 NW7       30.15F
MORRISTOWN     SUNNY     37  18  44 W9G16     30.14F WCI  31
JACKSBORO      SUNNY     41  18  38 VRB7      30.18F
$$

TNZ083-085-099-102000-
SOUTHEAST TENNESSEE

CITY           SKY/WX    TMP DP  RH WIND       PRES   REMARKS
CHATTANOOGA    SUNNY     44  18  35 SW7       30.22F
DAYTON         CLEAR     43  25  49 VRB7G16   30.19F
$$

SKY/WX REPORTED AS FAIR MEANS FEW OR NO CLOUDS BELOW
12 THOUSAND FEET.





USA.gov is the U.S. government's official web portal to all federal, state and local government web resources and services.